Tracking 25693 objects as of 30-Jun-2022
HD Live streaming from Space Station
objects crossing your sky now

STARLINK-2605

Track STARLINK-2605 now!
10-day predictions
STARLINK-2605 is classified as:


NORAD ID: 48392
Int'l Code: 2021-038AR
Perigee: 553.3 km
Apogee: 555.4 km
Inclination: 53.1 °
Period: 95.6 minutes
Semi major axis: 6925 km
RCS: Unknown
Launch date: May 4, 2021
Source: United States (US)
Launch site: AIR FORCE EASTERN TEST RANGE (AFETR)
aabbcc
Your satellite tracking list
Your tracking list is empty




NASA's NSSDC Master Catalog

Two Line Element Set (TLE):
1 48392U 21038AR  22181.53442057  .00000378  00000-0  44288-4 0  9992
2 48392  53.0547 273.7376 0001482  64.3245 295.7897 15.06393501 65322
Source of the keplerian elements: AFSPC